This is the latest recevied weather packets stored in our database for station/object OK2ZAW-21. If no packets are shown the sender has not sent any weather packets the latest 10 day(s).
| Time | Temp. | Humidity | Pressure | Rain* | Wind** | Luminosity | Snow |
|---|---|---|---|---|---|---|---|
| 1788692788 | 16.11° C | 63% | 1030 hPa | - | - | 424 W/m² | - |
| 1788692477 | 16.67° C | 65% | 1030 hPa | - | - | 424 W/m² | - |
| 1788692166 | 17.22° C | 62% | 1030 hPa | - | - | 424 W/m² | - |
| 1788691855 | 16.67° C | 64% | 1030.1 hPa | - | - | 424 W/m² | - |
| 1788691544 | 16.11° C | 67% | 1030.1 hPa | - | - | 425 W/m² | - |
| 1788691233 | 15.56° C | 72% | 1030.2 hPa | - | - | 425 W/m² | - |
| 1788690922 | 16.11° C | 68% | 1030.3 hPa | - | - | 425 W/m² | - |
| 1788690611 | 15.56° C | 70% | 1030.3 hPa | - | - | 425 W/m² | - |
| 1788690300 | 15.56° C | 70% | 1030.3 hPa | - | - | 425 W/m² | - |
| 1788689989 | 16.11° C | 71% | 1030.3 hPa | - | - | 425 W/m² | - |
| 1788689679 | 15° C | 73% | 1030.3 hPa | - | - | 425 W/m² | - |
| 1788689368 | 14.44° C | 78% | 1030.4 hPa | - | - | 425 W/m² | - |
| 1788689057 | 15.56° C | 74% | 1030.3 hPa | - | - | 426 W/m² | - |
| 1788688746 | 15° C | 78% | 1030.1 hPa | - | - | 426 W/m² | - |
| 1788688435 | 14.44° C | 78% | 1030.1 hPa | - | - | 426 W/m² | - |
| 1788688124 | 15° C | 82% | 1030.3 hPa | - | - | 426 W/m² | - |
| 1788687814 | 14.44° C | 82% | 1030.2 hPa | - | - | 426 W/m² | - |
| 1788687503 | 16.11° C | 79% | 1030.2 hPa | - | - | 427 W/m² | - |
| 1788687192 | 14.44° C | 82% | 1030.2 hPa | - | - | 428 W/m² | - |
| 1788686881 | 14.44° C | 85% | 1030.2 hPa | - | - | 428 W/m² | - |
| 1788686570 | 13.89° C | 89% | 1030.3 hPa | - | - | 426 W/m² | - |
| 1788686260 | 14.44° C | 90% | 1030.3 hPa | - | - | 427 W/m² | - |
| 1788685949 | 15° C | 85% | 1030.1 hPa | - | - | 426 W/m² | - |
| 1788685638 | 13.89° C | 90% | 1030.1 hPa | - | - | 427 W/m² | - |
| 1788685327 | 14.44° C | 94% | 1030.2 hPa | - | - | 426 W/m² | - |
* Rain since midnight (hover to see other rain measurements)
** Current wind speed in m/s (hover to see current wind gust speed)